Location: Novo Ouro Preto
(19.8840°S, 43.9844°W)
Time: 08:57:00
(UTC+00:00)

Feng Yun 1-1 Rocket - Pass Details

Date: 18 September 2020
Orbit: 830 x 933 km, 99.2° (Epoch: 22 October)

Event Time Altitude Azimuth Distance (km) Brightness Sun altitude
Rises 21:42:03 0° 169° (S) 3,406 7.3 -12.8°
Reaches altitude 10° 21:44:26 10° 170° (S) 2,459 6.5 -13.3°
Maximum altitude 21:49:52 82° 256° (WSW) 846 4.3 -14.6°
Drops below altitude 10° 21:55:14 10° 343° (NNW) 2,431 6.7 -15.9°
Sets 21:57:35 0° 344° (NNW) 3,364 7.5 -16.4°
